Location: Ipswich
(52.0579°N, 1.1528°E)
Time: 21:25:33
(UTC+01:00)

ISS - Pass Details

Date: 09 May 2026
Orbit: 414 x 424 km, 51.6° (Epoch: 15 May)

Event Time Altitude Azimuth Distance (km) Brightness Sun altitude
Rises 22:15:27 0° 233° (SW) 2,344 0.1 -12.5°
Reaches altitude 10° 22:17:36 10° 226° (SW) 1,485 -1.0 -12.8°
Maximum altitude 22:20:44 39° 156° (SSE) 635 -3.4 -13.0°
Drops below altitude 10° 22:23:54 10° 85° (E) 1,494 -1.3 -13.3°
Enters shadow 22:24:23 - 83° (E) 1,681 -1.0 -13.4°
